User: anonymous   Login
Location: Caltech
(34.1382°N, 118.1253°W)
Time: 05:37:40
(UTC-07:00)
Language:

BREEZE M DEB (TANK) - Orbit

View from above orbital plane
View from above orbital plane
View from above satellite
View from above satellite

Ground track
Ground track

The orbit data is extracted from the following two-line orbital elements,

1 33437U 08057B   15108.73180505  .00005482  00000-0  12806-2 0  9992
2 33437 049.5418 201.2669 5011127 221.9764 344.4291 05.57399946129643
Epoch (UTC): 18 April 2015 17:33:47
Eccentricity: 0.5011127
inclination: 49.5418°
perigee height: 325 km
apogee height: 13791 km
right ascension of ascending node: 201.2669°
argument of perigee: 221.9764°
revolutions per day: 5.57399946
mean anomaly at epoch: 344.4291°
orbit number at epoch: 12964

The dashed part of the orbit path shows where the satellite is in the earth's shadow,  

DLR